FW7851 Weather Reports


time (UTC)temp
C
wind
direction
speed
KPH
gust
KPH
rain 1hr
cm
rain 24hr
cm
rain mn
cm
humidity
%
barometer
mb
20260504110456 6 354 0.0 0.0 0.00 0.00 0.00 84 1011.3
20260504100418 5 358 0.0 0.0 0.00 0.00 0.00 83 1011.0
20260504081812 5 350 0.0 0.0 0.00 0.00 0.00 84 1010.8
20260504081309 5 348 0.0 0.0 0.00 0.00 0.00 84 1010.8
20260504080804 5 356 0.0 0.0 0.00 0.00 0.00 83 1010.8
20260504080301 5 353 0.0 0.0 0.00 0.00 0.00 82 1010.6
20260504070229 2 327 0.0 0.0 0.00 0.00 0.00 93 1010.6
20260504060149 3 317 0.0 0.0 0.00 0.00 0.00 92 1010.4
20260504050617 3 324 0.0 0.0 0.00 0.00 0.00 90 1010.3
20260504050115 3 332 0.0 0.0 0.00 0.00 0.00 90 1010.4
20260504045612 3 332 0.0 0.0 0.00 0.00 0.00 90 1010.5
20260504045106 3 329 0.0 0.0 0.00 0.00 0.00 89 1010.5
20260504044604 3 328 0.0 0.0 0.00 0.00 0.00 89 1010.2
20260504044101 3 327 0.0 0.0 0.00 0.00 0.00 89 1010.4
20260504043558 3 0 0.0 0.0 0.00 0.00 0.00 89 1010.2
20260504043055 3 338 0.0 0.0 0.00 0.00 0.00 89 1010.5
20260504042552 3 339 0.0 0.0 0.00 0.00 0.00 90 1010.4
20260504042049 3 342 0.0 0.0 0.00 0.00 0.00 89 1010.5
20260504041545 3 322 0.0 0.0 0.00 0.00 0.00 89 1010.1
20260504041041 3 342 0.0 0.0 0.00 0.00 0.00 89 1010.2
20260504040539 4 342 0.0 0.0 0.00 0.00 0.00 88 1010.2
20260504040035 4 338 0.0 0.0 0.00 0.00 0.00 88 1010.1
20260504035532 4 342 0.0 0.0 0.00 0.00 0.00 87 1009.9
20260504035029 5 335 0.0 0.0 0.00 0.00 0.00 87 1010.1
20260504034526 5 333 0.0 1.6 0.00 0.00 0.00 86 1010.2
20260504034023 5 332 0.0 0.0 0.00 0.00 0.00 85 1010.1
20260504033521 5 331 0.0 0.0 0.00 0.00 0.00 84 1010.1
20260504033018 5 333 0.0 0.0 0.00 0.00 0.00 84 1010.1
20260504032515 5 333 0.0 0.0 0.00 0.00 0.00 83 1010.0
20260504032012 5 325 0.0 0.0 0.00 0.00 0.00 83 1010.3
20260504031509 5 320 0.0 0.0 0.00 0.00 0.00 83 1010.0
20260504031005 5 330 0.0 0.0 0.00 0.00 0.00 83 1010.1
20260504030503 5 331 0.0 0.0 0.00 0.00 0.00 82 1010.2
20260504025958 5 331 0.0 0.0 0.00 0.00 0.00 80 1009.7
20260504025455 6 331 0.0 0.0 0.00 0.00 0.00 78 1009.8
20260504024952 6 331 0.0 0.0 0.00 0.00 0.00 78 1010.1
20260504024449 6 331 0.0 0.0 0.00 0.00 0.00 77 1009.9
20260504023946 6 331 0.0 0.0 0.00 0.00 0.00 75 1009.8
20260504023443 7 331 0.0 0.0 0.00 0.00 0.00 75 1009.9
20260504022938 7 331 0.0 0.0 0.00 0.00 0.00 73 1010.0
20260504022435 7 331 0.0 0.0 0.00 0.00 0.00 72 1010.0
20260504021932 7 320 0.0 0.0 0.00 0.00 0.00 70 1009.9
20260504021429 7 248 0.0 0.0 0.00 0.00 0.00 69 1010.0
20260504020926 8 306 0.0 0.0 0.00 0.00 0.00 70 1009.8
20260504020423 8 324 0.0 0.0 0.00 0.00 0.00 68 1010.0
20260504015919 8 352 0.0 0.0 0.00 0.00 0.00 65 1009.6
20260504015415 9 341 0.0 0.0 0.00 0.00 0.00 63 1009.9
20260504014911 10 311 0.0 0.0 0.00 0.00 0.00 59 1009.9
20260504014408 10 307 0.0 0.0 0.00 0.00 0.00 54 1010.0
20260504013905 10 305 0.0 0.0 0.00 0.00 0.00 52 1009.8
20260504013403 10 306 0.0 0.0 0.00 0.00 0.00 51 1009.9
20260504012858 10 295 0.0 0.0 0.00 0.00 0.00 51 1009.9
20260504012357 10 297 0.0 0.0 0.00 0.00 0.00 52 1009.8
20260504011854 10 303 0.0 0.0 0.00 0.00 0.00 51 1009.8
20260504011350 10 312 0.0 0.0 0.00 0.00 0.00 50 1009.8
20260504010846 10 312 0.0 0.0 0.00 0.00 0.00 50 1009.9
20260504010342 10 311 0.0 0.0 0.00 0.00 0.00 49 1009.7
20260504005839 10 301 0.0 0.0 0.00 0.00 0.00 49 1009.5
20260504005336 10 310 0.0 0.0 0.00 0.00 0.00 49 1009.5
20260504004833 10 300 0.0 0.0 0.00 0.00 0.00 49 1009.4
20260504004331 10 302 0.0 0.0 0.00 0.00 0.00 48 1009.5
20260504003827 10 315 0.0 0.0 0.00 0.00 0.00 48 1009.3
20260504003324 11 302 0.0 0.0 0.00 0.00 0.00 47 1009.2
20260504002821 11 301 0.0 0.0 0.00 0.00 0.00 47 1009.1
20260504002318 11 300 0.0 0.0 0.00 0.00 0.00 45 1009.0
20260504001815 11 305 0.0 0.0 0.00 0.00 0.00 46 1009.0
20260504001313 11 307 0.0 0.0 0.00 0.00 0.00 45 1009.0
20260504000809 12 288 0.0 0.0 0.00 0.00 0.00 44 1009.0
20260504000306 12 213 0.0 0.0 0.00 0.00 0.00 44 1009.0
20260503235804 12 311 0.0 0.0 0.00 0.00 0.00 42 1008.8
20260503235301 12 317 0.0 0.0 0.00 0.00 0.00 43 1008.5
20260503234759 12 328 0.0 0.0 0.00 0.00 0.00 42 1008.6
20260503234257 12 333 0.0 0.0 0.00 0.00 0.00 43 1008.5
20260503233754 12 315 0.0 0.0 0.00 0.00 0.00 40 1008.5
20260503233249 12 323 1.6 3.2 0.00 0.00 0.00 41 1008.6
20260503232747 12 337 1.6 1.6 0.00 0.00 0.00 40 1008.5
20260503232244 12 342 0.0 0.0 0.00 0.00 0.00 40 1008.4
20260503231742 12 340 0.0 0.0 0.00 0.00 0.00 40 1008.4
20260503231239 13 346 1.6 1.6 0.00 0.00 0.00 40 1008.2
20260503230734 13 336 0.0 0.0 0.00 0.00 0.00 39 1008.2
20260503230232 13 312 1.6 4.8 0.00 0.00 0.00 36 1008.1
20260503225729 13 336 1.6 1.6 0.00 0.00 0.00 37 1008.1
20260503225229 13 279 0.0 0.0 0.00 0.00 0.00 35 1008.2
20260503224726 13 320 0.0 0.0 0.00 0.00 0.00 35 1008.1
20260503224224 13 319 1.6 4.8 0.00 0.00 0.00 35 1008.2
20260503223721 13 335 1.6 1.6 0.00 0.00 0.00 34 1008.1
20260503223219 13 317 0.0 0.0 0.00 0.00 0.00 35 1007.8
20260503222715 13 336 8.0 9.7 0.00 0.00 0.00 33 1008.1
20260503222213 13 333 0.0 1.6 0.00 0.00 0.00 35 1007.8
20260503221711 14 340 8.0 11.3 0.00 0.00 0.00 31 1007.9
20260503221209 14 334 4.8 4.8 0.00 0.00 0.00 31 1008.0
20260503220705 14 341 8.0 9.7 0.00 0.00 0.00 32 1007.8
20260503220202 14 10 4.8 8.0 0.00 0.00 0.00 31 1007.9
20260503215659 13 347 8.0 9.7 0.00 0.00 0.00 32 1007.9
20260503215155 14 354 8.0 12.9 0.00 0.00 0.00 32 1008.1
20260503214654 14 22 1.6 1.6 0.00 0.00 0.00 34 1007.8
20260503214150 14 331 8.0 11.3 0.00 0.00 0.00 32 1008.1
20260503213649 14 340 8.0 9.7 0.00 0.00 0.00 33 1007.8
20260503213146 14 8 1.6 1.6 0.00 0.00 0.00 35 1007.9
20260503212643 14 329 4.8 4.8 0.00 0.00 0.00 38 1007.8
20260503212140 14 356 4.8 4.8 0.00 0.00 0.00 33 1007.7
20260503211638 14 308 0.0 1.6 0.00 0.00 0.00 38 1007.8
20260503211133 14 289 3.2 8.0 0.00 0.00 0.00 37 1007.9
20260503210630 14 286 1.6 1.6 0.00 0.00 0.00 39 1007.8
20260503210126 13 9 1.6 1.6 0.00 0.00 0.00 40 1008.1
20260503205622 13 285 9.7 14.5 0.00 0.00 0.00 36 1008.0
20260503205119 13 14 6.4 8.0 0.00 0.00 0.00 37 1008.1
20260503204615 13 359 1.6 1.6 0.00 0.00 0.00 38 1008.0
20260503204113 15 342 1.6 3.2 0.00 0.00 0.00 37 1007.7
20260503203610 15 335 4.8 4.8 0.00 0.00 0.00 38 1007.9
20260503203107 13 337 1.6 1.6 0.00 0.00 0.00 41 1007.8
20260503202605 13 325 9.7 12.9 0.00 0.00 0.00 38 1008.0
20260503202102 13 334 9.7 14.5 0.00 0.00 0.00 37 1007.9
20260503201555 15 304 6.4 11.3 0.00 0.00 0.00 37 1008.2
20260503201052 13 26 1.6 1.6 0.00 0.00 0.00 41 1008.0
20260503200548 13 53 1.6 3.2 0.00 0.00 0.00 40 1008.2
20260503200044 12 336 3.2 3.2 0.00 0.00 0.00 39 1008.5
20260503195541 12 20 0.0 1.6 0.00 0.00 0.00 42 1008.4
20260503195038 13 10 0.0 1.6 0.00 0.00 0.00 46 1008.2
20260503194535 13 331 3.2 3.2 0.00 0.00 0.00 39 1008.5
20260503194035 12 21 1.6 3.2 0.00 0.00 0.00 40 1008.6
20260503193532 12 277 4.8 8.0 0.00 0.00 0.00 40 1008.5
20260503193027 12 7 3.2 3.2 0.00 0.00 0.00 42 1008.6
20260503192524 12 31 1.6 1.6 0.00 0.00 0.00 48 1008.7
20260503192020 13 64 3.2 3.2 0.00 0.00 0.00 44 1008.6
20260503191517 13 220 1.6 3.2 0.00 0.00 0.00 44 1008.9
20260503191014 12 315 3.2 4.8 0.00 0.00 0.00 43 1009.0
20260503190510 13 311 8.0 9.7 0.00 0.00 0.00 43 1008.9
20260503190008 12 327 1.6 3.2 0.00 0.00 0.00 40 1009.1
20260503185504 12 346 6.4 9.7 0.00 0.00 0.00 42 1009.0
20260503185004 12 78 3.2 3.2 0.00 0.00 0.00 46 1009.1
20260503184500 11 16 0.0 1.6 0.00 0.00 0.00 44 1009.1
20260503183956 12 337 14.5 17.7 0.00 0.00 0.00 43 1009.2
20260503183453 12 323 9.7 12.9 0.00 0.00 0.00 43 1009.3
20260503182950 11 340 3.2 8.0 0.00 0.00 0.00 44 1009.2
20260503182449 11 13 3.2 3.2 0.00 0.00 0.00 44 1009.4
20260503181946 11 344 1.6 3.2 0.00 0.00 0.00 43 1009.3
20260503181443 11 352 11.3 14.5 0.00 0.00 0.00 44 1009.3
20260503180939 11 354 3.2 8.0 0.00 0.00 0.00 47 1009.5
20260503180438 11 336 3.2 4.8 0.00 0.00 0.00 46 1009.4
20260503175934 10 293 4.8 9.7 0.00 0.00 0.00 45 1009.2
20260503175432 11 6 1.6 3.2 0.00 0.00 0.00 50 1009.4
20260503174928 10 340 3.2 4.8 0.00 0.00 0.00 45 1009.4
20260503174426 10 277 0.0 1.6 0.00 0.00 0.00 46 1009.3
20260503173926 10 334 4.8 4.8 0.00 0.00 0.00 45 1009.5
20260503173422 10 223 1.6 3.2 0.00 0.00 0.00 48 1009.5
20260503172919 10 314 3.2 8.0 0.00 0.00 0.00 46 1009.5
20260503172417 11 329 9.7 14.5 0.00 0.00 0.00 45 1009.6
20260503171913 10 305 4.8 8.0 0.00 0.00 0.00 49 1009.3
20260503171410 10 334 11.3 12.9 0.00 0.00 0.00 44 1009.7
20260503170907 10 339 6.4 8.0 0.00 0.00 0.00 47 1009.4
20260503170403 11 302 4.8 8.0 0.00 0.00 0.00 45 1009.5
20260503150755 10 344 0.0 0.0 0.00 0.00 0.00 50 1009.6
20260503150251 10 350 12.9 16.1 0.00 0.00 0.00 49 1009.7
20260503140216 8 352 1.6 1.6 0.00 0.00 0.00 59 1009.8
20260503131146 7 329 1.6 3.2 0.00 0.00 0.00 62 1010.0
20260503130643 7 341 12.9 14.5 0.00 0.00 0.00 63 1010.1
20260503130141 8 342 1.6 3.2 0.00 0.00 0.00 64 1010.0
20260503120106 5 345 0.0 1.6 0.00 0.00 0.00 77 1010.0